Flag for Germany Weather past 2 weeks in Speyer, Rhineland-Palatinate, Germany

Now
91 °F

Passing clouds.


Feels Like: 92 °F
Forecast: 65 / 74 °F
Wind: 10 mph from South

Location: Baden Wurttemberg - Neuostheim

Current Time: Jul 7, 2015 at 4:10:25 PM

Latest Report: Jul 7, 2015 at 3:20 PM


Visibility: N/A

Pressure: 29.80 "Hg

Humidity: 38%

Dew point: 63 °F

Location of SpeyerLocation

Historic Weather in Speyer — Graph

°F

Speyer temperature yesterday

Maximum temperature yesterday: 86 °F (at 5:50 PM)
Minimum temperature yesterday: 66 °F (at 5:50 AM)
Average temperature yesterday: 78 °F

Past Weeks' High & Low Weather Summary

 TemperatureHumidityPressure
High100 °F (Jul 4, 6:20 PM)100% (Jun 25, 4:50 AM)30.21 "Hg (Jun 25, 4:50 AM)
Low50 °F (Jun 23, 5:20 AM)24% (Jul 1, 2:50 PM)29.74 "Hg (Jun 22, 9:20 PM)
Average76 °F51%30.09 "Hg
* Reported Jun 22 2:20 PM — Jul 7 2:50 PM, Speyer, Weather by CustomWeather, © 2015

Note: Actual official high and low records may vary slightly from our data, if they occured in-between our weather recording intervals... More about our weather records

Advertising

Speyer weather history for previous 24 hours

 ConditionsComfort  
Time TempWeatherWind HumidityBarometerVisibility
2:50 PM
Tue, Jul 7
91 °FPassing clouds.8 mph34%29.83 "HgN/A
2:20 PM90 °FPassing clouds.7 mph36%29.83 "HgN/A
1:50 PM90 °FPassing clouds.10 mph36%29.86 "HgN/A
1:20 PM90 °FSunny.6 mph31%29.86 "Hg10 mi
12:50 PM88 °FPassing clouds.7 mph33%29.86 "HgN/A
12:20 PM88 °FSunny.2 mph33%29.86 "Hg10 mi
11:50 AM88 °FSunny.2 mph33%29.89 "Hg10 mi
11:20 AM84 °FSunny.3 mph35%29.89 "Hg10 mi
10:50 AM82 °FSunny.2 mph37%29.92 "Hg10 mi
10:20 AM81 °FSunny.3 mph37%29.92 "Hg10 mi
9:50 AM79 °FSunny.2 mph37%29.92 "Hg10 mi
9:20 AM77 °FSunny.2 mph44%29.95 "Hg10 mi
8:50 AM75 °FSunny.2 mph47%29.95 "Hg10 mi
8:20 AM73 °FSunny.2 mph47%29.95 "Hg10 mi
7:50 AM72 °FSunny.1 mph53%29.98 "Hg10 mi
7:20 AM68 °FSunny.2 mph60%29.98 "Hg10 mi
6:50 AM68 °FSunny.2 mph64%29.98 "Hg10 mi
6:20 AM66 °FClear.3 mph68%29.98 "Hg10 mi
5:50 AM63 °FClear.2 mph77%29.98 "Hg10 mi
5:20 AM63 °FClear.1 mph77%29.98 "Hg10 mi
9:50 PM
Mon, Jul 6
79 °FSunny.3 mph37%30.07 "Hg10 mi
9:20 PM82 °FPleasantly warm.3 mph30%30.07 "HgN/A
8:50 PM82 °FPassing clouds.5 mph28%30.07 "HgN/A
8:20 PM84 °FSunny.3 mph25%30.07 "Hg10 mi
7:50 PM84 °FSunny.3 mph25%30.07 "Hg10 mi
7:20 PM86 °FSunny.3 mph24%30.07 "Hg10 mi
6:50 PM86 °FPassing clouds.6 mph24%30.07 "HgN/A
6:20 PM86 °FSunny.3 mph25%30.07 "Hg10 mi
5:50 PM86 °FSunny.3 mph24%30.09 "Hg10 mi
5:20 PM84 °FSunny.3 mph25%30.09 "Hg10 mi
4:50 PM84 °FSunny.3 mph25%30.09 "Hg10 mi
4:20 PM84 °FPassing clouds.6 mph25%30.09 "HgN/A
Weather by CustomWeather, © 2015

See weather overviewHow to use our weather pages